Hourly Data Report for July 14, 2003

TORONTO CITY
ONTARIO

43°40'00.000" N
79°24'00.000" W
112.50 m
6158355
71508
XTO

Download Data

Hourly Data (July 2003)
Hourly Data Report for July 14, 2003
TIME
LST
Temp Definition
°C
Dew Point Definition
°C
Rel Hum Definition
%
Precip. Amount Definition
mm

Wind Dir Definition
10's deg

Wind Spd Definition
km/h
Visibility Definition
km
Stn Press Definition
kPa
Hmdx Definition


Wind Chill Definition


Weather Definition


00:00 17.2 12.9 76   LegendMM LegendMM LegendMM 100.56     LegendNANA
01:00 17.2 13.9 81   LegendMM LegendMM LegendMM 100.55     LegendNANA
02:00 16.8 14.5 86   LegendMM LegendMM LegendMM 100.57     LegendNANA
03:00 16.0 14.3 90   LegendMM LegendMM LegendMM 100.58     LegendNANA
04:00 15.3 14.0 92   LegendMM LegendMM LegendMM 100.60     LegendNANA
05:00 15.4 14.3 93   LegendMM LegendMM LegendMM 100.63     LegendNANA
06:00 15.6 14.1 91   LegendMM LegendMM LegendMM 100.69     LegendNANA
07:00 17.4 14.4 83   LegendMM LegendMM LegendMM 100.76     LegendNANA
08:00 20.3 15.5 74   LegendMM LegendMM LegendMM 100.80 25   LegendNANA
09:00 23.0 16.4 66   LegendMM LegendMM LegendMM 100.80 28   LegendNANA
10:00 24.1 14.7 56   LegendMM LegendMM LegendMM 100.76 28   LegendNANA
11:00 24.6 13.7 51   LegendMM LegendMM LegendMM 100.76 28   LegendNANA
12:00 25.8 15.3 52   LegendMM LegendMM LegendMM 100.72 30   LegendNANA
13:00 25.8 14.4 49   LegendMM LegendMM LegendMM 100.64 29   LegendNANA
14:00 25.8 14.6 50   LegendMM LegendMM LegendMM 100.61 30   LegendNANA
15:00 26.0 14.1 48   LegendMM LegendMM LegendMM 100.61 29   LegendNANA
16:00 27.6 14.6 45   LegendMM LegendMM LegendMM 100.57 31   LegendNANA
17:00 27.0 14.3 46   LegendMM LegendMM LegendMM 100.55 31   LegendNANA
18:00 25.7 15.4 53   LegendMM LegendMM LegendMM 100.54 30   LegendNANA
19:00 24.6 14.4 53   LegendMM LegendMM LegendMM 100.49 28   LegendNANA
20:00 23.0 13.6 55   LegendMM LegendMM LegendMM 100.46 26   LegendNANA
21:00 21.3 14.1 64   LegendMM LegendMM LegendMM 100.50 25   LegendNANA
22:00 20.2 14.8 71   LegendMM LegendMM LegendMM 100.49     LegendNANA
23:00 20.1 13.9 67   LegendMM LegendMM LegendMM 100.45     LegendNANA

Notes on Data Quality.

Legend

  • E = Estimated
  • M = Missing
  • NA = Not Available*
  • [empty] = Indicates an unobserved value
Date modified: